Location: Unspecified
(50.7693°N, 0.0000°E)
Time: 18:00:58
(UTC+00:00)

Explorer 7 - Visible Passes

Search period start: 07 August 2020 00:00
Search period end: 17 August 2020 00:00
Orbit: 485 x 679 km, 50.3° (Epoch: 06 August)

Date Brightness Start Highest point End Pass type
(mag) Time Alt. Az. Time Alt. Az. Time Alt. Az.
07 Aug 7.9 02:49:19 22° S 02:49:19 22° S 02:51:31 10° SSE visible
07 Aug 8.2 20:09:55 10° S 20:12:27 17° SE 20:14:56 10° E visible
07 Aug 6.6 21:48:36 10° WSW 21:52:21 53° SSE 21:53:56 29° E visible
07 Aug 8.5 23:28:55 10° W 23:30:17 21° W 23:30:17 21° W visible
08 Aug 7.8 20:13:51 10° SSW 20:17:01 24° SSE 20:20:07 10° E visible
08 Aug 6.5 21:53:16 10° WSW 21:57:06 66° SSE 21:58:49 29° E visible
08 Aug 8.5 23:33:42 10° W 23:35:08 22° W 23:35:08 22° W visible
09 Aug 7.4 20:18:06 10° SW 20:21:39 33° SSE 20:25:05 10° E visible
09 Aug 6.4 21:58:00 10° WSW 22:01:50 77° S 22:03:23 34° E visible
09 Aug 8.6 23:38:30 10° W 23:39:41 19° W 23:39:41 19° W visible
10 Aug 7.0 20:22:33 10° SW 20:26:19 44° SSE 20:29:57 10° E visible
10 Aug 6.4 22:02:46 10° W 22:06:38 84° S 22:07:48 43° E visible
10 Aug 8.9 23:43:17 10° W 23:44:05 16° W 23:44:05 16° W visible
11 Aug 6.7 20:27:09 10° WSW 20:31:02 57° SSE 20:34:46 10° E visible
11 Aug 6.4 22:07:34 10° W 22:11:25 85° S 22:12:08 57° E visible
11 Aug 9.2 23:48:05 10° W 23:48:25 12° W 23:48:25 12° W visible
12 Aug 6.6 20:31:51 10° WSW 20:35:47 70° SSE 20:39:34 10° E visible
12 Aug 6.4 22:12:22 10° W 22:16:12 81° S 22:16:26 76° SE visible
13 Aug 6.6 20:36:36 10° WSW 20:40:33 80° S 20:44:20 10° E visible
13 Aug 6.6 22:17:09 10° W 22:20:42 68° SW 22:20:42 68° SW visible
14 Aug 6.6 20:41:23 10° W 20:45:20 85° S 20:48:42 13° E visible
14 Aug 7.1 22:21:56 10° W 22:24:58 47° WSW 22:24:58 47° WSW visible
15 Aug 6.5 20:46:10 10° W 20:50:07 85° S 20:52:57 17° E visible
15 Aug 7.8 22:26:45 10° W 22:29:14 33° WSW 22:29:14 33° WSW visible
16 Aug 6.5 20:50:57 10° W 20:54:54 79° S 20:57:14 22° ESE visible
16 Aug 8.3 22:31:36 10° W 22:33:31 24° WSW 22:33:31 24° WSW visible
